Starlink 4032

operational
NORAD ID: 52688 Int'l Des: 2022-053 Owner: SPXS Country: US Constellation: starlink
LEOCIRCULAR

关于 Starlink 4032

正在加载描述...

实时位置

正在加载3D地球...

即将过境

高度历史

Altitude vs Time

uPlot chart will show altitude changes over time

两行轨道根数

1 52688U 22053AJ 25307.53422940 .00001064 00000-0 84939-4 0 9995
2 52688 53.2176 350.3379 0001384 92.5081 267.6070 15.08845648192072
Epoch: Nov 3, 2025 • Age: 21 hours

当前状态

高度 544.0 km
速度 7.60 km/s
星下点 46.95°N, 151.38°W
发射日期 May 18, 2022
运行时间 3.4 years
类型 internet

技术详情

分类 Payload
质量 297.00 kg
干质量 275.00 kg
总质量 297.00 kg
长度 0.20 m
直径 2.80 m
跨度 9.00 m
形状 Box + pan
制造商 SPXS
平台类型 Starlink
阶段状态 In Orbit
所有者/国家 SPXS/US

大型星座

Loading constellations...